Location: ??
(34.9170°N, 135.5016°E)
Time: 17:10:11
(UTC+00:00)

GOES 2 Rocket - Pass Details

Date: 29 October 2020
Orbit: 569 x 1674 km, 28.4° (Epoch: 29 November)

Event Time Altitude Azimuth Distance (km) Brightness Sun altitude
Exits shadow 19:26:44 36° 213° (SSW) 1,221 4.2 -23.1°
Maximum altitude 19:28:10 44° 174° (S) 1,127 4.3 -22.8°
Drops below altitude 10° 19:34:23 10° 105° (ESE) 2,799 7.5 -21.5°
Sets 19:37:37 0° 99° (E) 3,952 8.7 -20.9°
